Wind_Speed
19 19 19 20 20 21 21 22 22 23 23 24 25 26 26 26 27 28 28 28 29 30 30 31 32 33 33 34 35 37 38 39 40 41 42 42 43 44 45 47 48 49 50
19 19 20 20 21 21 22 23 23 24 25 25 26 26 27 27 28 28 28 29 30 31 32 32 33 34 35 36 38 39 40 40 42 43 44 43 43 46 47 48 49 50 52
20 20 20 21 22 22 23 24 24 25 26 26 26 27 27 28 28 29 30 30 31 32 33 34 35 36 37 38 39 40 42 42 44 46 48 48 48 47 48 50 52 54 55
20 21 21 22 23 24 24 25 26 26 26 27 27 28 28 28 29 30 31 32 33 34 35 36 37 38 39 40 41 43 44 45 46 48 50 52 53 54 53 53 55 58 60
21 22 23 24 24 25 25 26 27 27 27 28 28 29 30 31 31 32 33 34 35 36 38 39 40 41 42 43 45 46 47 49 51 52 54 56 58 60 62 61 60 62 64
22 23 24 25 26 26 27 28 28 28 29 30 30 31 32 33 34 35 36 37 38 39 40 41 42 44 45 46 48 50 51 53 55 57 58 60 62 64 67 69 69 69 69
24 24 25 26 27 28 29 29 29 30 31 32 33 33 34 35 36 37 38 39 40 41 42 43 45 47 48 50 51 53 55 57 59 61 63 65 67 70 72 74 75 76 75
25 26 27 28 29 29 30 30 31 32 33 34 35 36 37 38 39 40 40 41 42 43 45 46 48 49 51 52 54 56 58 60 63 65 67 69 71 73 76 78 80 81 80
26 27 28 29 30 31 32 32 33 35 36 36 37 38 39 40 41 42 43 44 45 46 47 49 50 52 54 56 58 60 62 64 66 69 70 72 74 76 78 80 82 84 84
27 29 30 31 32 33 34 35 36 37 37 38 39 40 41 42 43 44 45 46 48 49 50 52 53 55 57 59 61 63 66 68 69 71 73 74 76 78 79 81 82 83 85
29 31 32 33 34 36 37 38 39 39 40 41 42 43 44 45 45 46 48 49 51 52 53 55 56 58 60 62 64 66 68 70 72 73 75 76 78 79 80 81 81 80 81
32 33 34 36 37 38 39 40 41 41 42 43 44 45 46 46 47 48 50 51 53 54 56 57 59 61 63 65 67 69 71 73 74 75 77 78 79 79 79 78 77 76 75
34 35 37 38 39 40 41 42 43 44 44 45 45 46 47 48 49 51 52 54 55 57 58 60 62 64 66 68 70 72 73 74 76 77 78 78 78 77 76 74 73 71 70
36 38 39 40 41 42 43 44 44 45 46 46 47 48 49 51 52 53 55 56 58 59 61 63 65 67 69 71 72 74 75 76 77 78 78 77 75 74 72 70 67 66 64
38 39 41 42 43 43 44 45 46 46 47 48 50 51 52 53 54 55 57 58 60 61 63 65 67 69 71 73 74 76 77 77 77 76 75 73 71 69 67 65 62 61 60
40 41 42 43 43 44 45 46 47 48 50 51 52 53 54 55 56 58 59 60 62 63 65 67 69 71 73 75 76 78 78 77 76 74 71 68 66 64 62 60 58 57 56
41 42 43 44 45 46 47 48 49 50 51 52 53 54 55 56 58 60 61 62 63 65 67 69 71 73 74 76 77 78 78 76 73 71 68 65 62 60 58 56 54 53 52
43 43 44 45 46 47 48 49 50 51 52 53 54 55 57 58 59 61 62 64 66 67 69 71 73 74 76 77 77 77 76 73 70 67 65 62 59 57 54 52 50 48 48
44 45 45 46 47 48 49 50 51 52 53 54 55 57 58 59 61 62 64 66 68 69 71 73 75 76 76 76 76 75 73 69 66 64 61 58 56 53 51 49 47 46 46
44 45 46 47 48 49 50 51 52 53 54 55 56 58 59 61 62 64 66 68 70 71 73 75 76 77 76 75 74 73 71 67 64 60 57 55 52 50 48 47 46 45 45
45 46 47 48 48 49 50 51 52 54 55 56 57 59 61 63 64 66 68 70 72 73 75 76 76 75 74 72 71 69 67 64 61 57 54 51 49 47 46 46 46 45 44
46 47 48 48 49 50 51 52 53 55 56 57 59 60 62 64 66 68 70 72 74 75 76 75 74 73 71 70 68 66 64 61 58 54 50 47 46 45 44 44 44 44 43
47 48 48 49 50 51 52 53 54 56 57 59 61 63 64 66 68 70 72 74 75 76 75 75 73 71 69 67 65 62 60 57 54 51 47 45 44 42 42 42 41 41 40
47 48 49 49 50 51 53 54 56 58 59 61 63 64 66 68 70 72 74 75 75 75 74 73 72 69 66 64 61 58 55 52 49 47 44 43 42 41 40 39 39 39 38
48 49 49 50 51 52 54 56 58 60 61 63 64 66 68 70 72 73 74 74 74 74 73 72 70 68 64 61 58 55 51 48 46 43 41 39 39 38 37 37 37 37 37
48 49 50 51 53 54 56 58 60 62 63 65 67 69 71 72 73 74 74 73 73 72 70 69 67 65 62 58 54 51 48 45 43 42 39 38 37 36 36 36 35 36 36
Wind_Direction
277 279 281 283 285 287 287 288 288 289 289 289 289 288 288 288 288 288 287 287 288 288 288 288 287 287 286 286 285 285 284 284 284 283 282 281 281 280 279 279 278 278 277
279 281 283 285 286 288 289 289 289 290 290 290 290 289 289 289 289 288 288 289 289 289 289 289 289 288 288 288 287 286 286 286 286 285 283 282 280 280 280 280 279 278 277
281 283 285 287 288 288 289 289 290 291 291 291 290 289 290 289 289 289 290 290 290 290 291 291 290 290 290 289 289 288 288 288 288 287 287 286 283 280 280 280 280 278 277
282 284 286 288 288 289 289 290 291 292 292 291 291 291 291 291 290 290 291 291 291 292 292 292 291 291 290 290 290 290 290 290 289 289 289 288 288 286 283 281 281 281 280
283 285 287 288 289 289 290 292 292 292 292 292 292 291 291 291 291 291 291 292 292 292 292 292 292 292 292 292 292 291 291 291 291 290 290 290 289 289 288 285 284 283 282
283 285 287 288 289 290 291 291 292 292 292 292 292 291 291 292 292 292 292 293 293 293 293 293 293 293 293 293 293 293 293 293 292 292 292 291 291 290 289 288 287 285 284
283 285 286 288 289 290 290 291 291 291 292 292 292 291 291 291 292 292 293 293 294 294 294 294 294 294 294 294 294 294 294 294 294 294 294 293 293 292 291 290 289 287 286
284 285 287 288 289 290 290 290 290 291 292 292 291 291 291 291 292 293 293 293 293 294 294 294 294 294 295 295 295 296 296 296 296 296 295 295 294 293 293 292 291 289 287
285 287 288 289 289 290 290 291 291 292 292 292 291 291 292 292 292 293 293 293 294 294 295 295 295 296 296 296 297 297 297 297 297 297 296 296 295 295 294 293 292 291 289
287 289 289 290 290 290 291 292 292 292 292 292 292 292 292 292 292 292 293 293 294 295 295 296 296 297 297 298 298 298 298 298 298 298 298 297 297 296 295 294 293 292 291
288 290 290 291 291 292 292 293 293 293 293 293 293 293 293 293 293 293 294 294 295 296 296 297 297 298 299 299 299 299 300 300 300 299 299 299 298 297 296 295 294 293 292
289 290 291 291 292 292 293 293 294 294 294 294 293 293 293 294 294 294 295 296 296 297 298 298 299 299 300 300 301 301 301 301 301 301 301 300 299 299 297 296 295 293 292
289 290 291 292 292 293 293 294 294 294 294 294 294 294 294 295 295 296 297 298 298 299 299 300 301 301 302 302 302 303 303 303 303 303 302 301 300 299 298 296 295 294 292
290 291 291 292 293 293 294 294 294 294 294 295 295 295 296 296 297 297 298 299 299 300 301 302 302 303 304 304 304 305 305 305 305 304 303 302 301 299 298 297 295 294 293
291 291 292 292 293 294 294 294 295 295 295 295 296 296 297 297 298 299 300 300 301 302 303 303 304 305 306 306 306 306 306 306 306 305 303 302 301 299 298 297 295 294 293
291 291 292 293 293 294 294 294 295 295 295 296 296 297 298 298 299 300 301 302 303 303 304 305 306 307 307 307 307 307 307 307 306 305 303 302 300 299 297 296 295 294 293
291 292 292 293 293 294 294 295 295 295 295 296 297 298 298 299 300 301 302 303 304 305 306 307 307 308 308 309 308 308 308 307 306 305 303 302 300 299 297 295 294 294 293
290 291 292 293 293 294 294 295 295 295 296 297 298 298 299 300 301 302 303 304 305 306 307 308 308 309 309 309 309 308 308 307 306 305 304 302 300 298 296 295 294 293 293
290 291 292 293 293 294 294 294 295 295 296 297 298 299 300 301 302 303 304 305 306 307 308 309 310 310 310 310 309 308 308 307 306 305 304 301 299 297 296 295 294 294 293
289 291 292 292 293 294 294 294 295 296 297 298 299 300 301 302 303 304 305 306 308 309 309 310 311 311 311 310 309 309 308 307 306 304 303 301 299 297 295 295 295 294 293
289 291 292 293 293 294 294 295 296 297 298 299 300 301 302 303 305 306 307 308 309 310 310 311 312 311 311 310 309 308 307 307 305 304 302 300 298 296 295 295 295 295 294
290 291 293 293 294 295 295 296 297 298 299 300 301 303 304 305 306 307 309 310 310 311 311 312 312 311 311 310 309 308 307 306 305 304 302 300 298 297 295 295 295 295 295
292 293 294 294 295 296 296 297 298 299 300 302 303 304 305 306 308 309 310 311 311 311 312 312 312 311 311 310 308 307 306 305 304 303 302 300 299 298 297 296 296 296 296
293 294 294 295 295 297 298 299 300 301 302 303 304 305 306 308 309 310 311 312 312 312 312 312 311 311 311 309 308 307 306 304 303 302 301 301 300 299 298 297 297 297 296
293 294 295 295 296 298 299 300 301 302 303 304 306 307 308 309 310 311 312 312 312 312 312 312 311 311 310 309 308 307 306 304 302 301 300 300 299 299 298 297 297 296 296
294 295 296 297 298 299 300 301 302 303 305 306 307 308 309 309 310 311 311 312 312 312 312 311 311 310 310 309 308 307 306 305 303 302 301 300 300 300 299 298 297 297 298
Height
5812 5812 5811 5810 5809 5808 5807 5806 5805 5803 5802 5800 5799 5797 5795 5793 5792 5790 5788 5787 5785 5784 5782 5780 5779 5777 5776 5774 5772 5770 5769 5767 5765 5764 5763 5763 5761 5759 5757 5756 5754 5753 5750
5807 5807 5806 5805 5804 5803 5802 5801 5799 5798 5796 5794 5793 5791 5789 5787 5786 5784 5782 5780 5778 5776 5775 5773 5771 5769 5767 5765 5763 5760 5759 5757 5754 5752 5750 5751 5752 5748 5746 5744 5742 5740 5738
5802 5802 5801 5800 5799 5798 5796 5795 5794 5792 5790 5788 5786 5785 5783 5781 5779 5777 5775 5773 5771 5769 5767 5765 5763 5760 5758 5756 5753 5751 5748 5746 5744 5740 5737 5735 5736 5735 5735 5731 5728 5725 5723
5797 5796 5796 5795 5793 5792 5791 5789 5788 5786 5784 5782 5780 5778 5776 5774 5772 5770 5768 5766 5763 5761 5759 5756 5754 5751 5748 5746 5743 5740 5737 5735 5732 5729 5725 5721 5718 5716 5717 5718 5714 5710 5707
5792 5791 5790 5789 5788 5786 5785 5783 5781 5779 5777 5775 5774 5771 5769 5767 5765 5763 5760 5758 5755 5753 5750 5747 5744 5741 5738 5735 5732 5729 5726 5722 5719 5715 5712 5708 5704 5699 5696 5696 5697 5694 5690
5786 5785 5784 5783 5782 5780 5779 5777 5775 5773 5771 5769 5767 5764 5762 5760 5757 5755 5752 5749 5746 5743 5740 5737 5734 5731 5727 5724 5721 5717 5713 5709 5705 5701 5696 5692 5688 5683 5678 5674 5673 5671 5669
5780 5779 5778 5777 5775 5774 5772 5770 5768 5766 5764 5762 5759 5757 5754 5752 5749 5746 5743 5740 5737 5734 5730 5727 5723 5720 5716 5712 5708 5704 5699 5695 5690 5685 5680 5674 5669 5663 5658 5653 5649 5647 5646
5774 5773 5772 5770 5769 5767 5765 5763 5761 5759 5757 5754 5751 5749 5746 5743 5740 5737 5734 5730 5727 5724 5720 5716 5712 5708 5703 5699 5694 5690 5685 5679 5674 5668 5662 5656 5650 5643 5636 5630 5624 5620 5620
5768 5767 5765 5764 5762 5760 5758 5756 5754 5751 5748 5746 5743 5740 5737 5734 5731 5727 5724 5720 5717 5713 5709 5704 5700 5695 5690 5685 5680 5675 5669 5663 5657 5650 5643 5637 5630 5622 5614 5607 5599 5592 5589
5761 5760 5758 5756 5754 5752 5750 5747 5745 5742 5740 5737 5734 5731 5727 5724 5721 5717 5713 5709 5705 5701 5696 5692 5687 5682 5676 5670 5664 5658 5652 5645 5638 5631 5624 5616 5608 5600 5592 5584 5576 5567 5559
5754 5752 5751 5748 5746 5744 5741 5739 5736 5733 5730 5727 5724 5720 5717 5713 5710 5706 5702 5698 5693 5688 5683 5678 5673 5667 5661 5655 5648 5641 5634 5627 5619 5611 5603 5595 5586 5578 5569 5560 5552 5544 5535
5746 5744 5742 5740 5737 5735 5732 5729 5726 5723 5720 5716 5713 5709 5706 5702 5698 5694 5689 5685 5680 5675 5669 5664 5658 5651 5645 5638 5630 5623 5615 5607 5599 5590 5581 5573 5563 5554 5545 5536 5528 5521 5512
5738 5736 5733 5731 5728 5726 5723 5719 5716 5713 5709 5705 5702 5698 5694 5690 5686 5681 5676 5671 5666 5661 5654 5648 5642 5635 5628 5620 5612 5604 5596 5587 5578 5569 5559 5550 5540 5531 5522 5514 5506 5499 5492
5729 5727 5724 5721 5718 5715 5712 5709 5705 5702 5698 5694 5690 5686 5682 5678 5673 5668 5663 5657 5652 5646 5639 5632 5625 5617 5609 5601 5593 5584 5576 5567 5557 5547 5537 5527 5517 5509 5501 5493 5486 5479 5473
5720 5717 5714 5711 5708 5705 5701 5698 5694 5690 5686 5682 5678 5674 5669 5665 5660 5654 5649 5643 5637 5630 5623 5616 5608 5600 5591 5582 5573 5564 5556 5546 5537 5526 5516 5506 5497 5488 5480 5473 5467 5461 5455
5710 5707 5703 5700 5697 5694 5690 5687 5683 5679 5674 5670 5666 5661 5656 5651 5646 5640 5634 5628 5621 5614 5607 5599 5591 5582 5572 5562 5553 5543 5534 5525 5515 5506 5496 5487 5478 5470 5462 5455 5449 5444 5438
5699 5696 5693 5690 5686 5683 5679 5675 5671 5667 5662 5658 5653 5648 5643 5637 5631 5625 5619 5612 5605 5598 5590 5582 5573 5564 5554 5543 5533 5522 5513 5504 5494 5485 5476 5468 5460 5452 5446 5440 5434 5429 5423
5688 5685 5682 5679 5675 5671 5667 5663 5659 5655 5650 5645 5640 5635 5629 5623 5617 5611 5604 5597 5589 5581 5573 5564 5555 5545 5535 5523 5513 5502 5493 5484 5475 5466 5457 5450 5443 5435 5429 5424 5420 5415 5410
5678 5675 5671 5668 5664 5660 5656 5651 5647 5642 5637 5632 5627 5621 5615 5609 5602 5596 5588 5581 5573 5564 5555 5546 5536 5526 5516 5503 5492 5482 5474 5465 5457 5448 5440 5432 5426 5420 5413 5409 5405 5402 5397
5667 5663 5660 5656 5652 5648 5644 5639 5634 5629 5624 5619 5613 5607 5600 5594 5587 5580 5572 5564 5555 5546 5537 5528 5517 5506 5496 5484 5473 5462 5454 5447 5440 5432 5424 5416 5410 5404 5399 5394 5390 5387 5383
5655 5652 5648 5644 5640 5635 5631 5627 5622 5616 5611 5605 5599 5593 5586 5579 5571 5564 5555 5546 5538 5529 5520 5510 5499 5488 5476 5466 5455 5444 5435 5428 5422 5416 5409 5402 5396 5390 5385 5380 5376 5372 5369
5643 5640 5636 5632 5627 5623 5618 5614 5608 5603 5597 5591 5585 5578 5571 5563 5555 5547 5538 5528 5519 5510 5500 5490 5481 5470 5458 5447 5437 5428 5418 5410 5404 5399 5393 5388 5382 5377 5372 5368 5363 5359 5355
5631 5627 5623 5619 5614 5610 5605 5600 5594 5589 5583 5577 5570 5563 5555 5547 5538 5529 5520 5511 5500 5490 5480 5470 5461 5453 5442 5431 5421 5412 5404 5396 5389 5384 5379 5374 5368 5364 5360 5355 5351 5347 5343
5619 5615 5611 5606 5601 5596 5591 5586 5580 5574 5568 5561 5554 5547 5539 5531 5522 5512 5502 5492 5482 5471 5461 5451 5442 5434 5425 5415 5405 5397 5390 5383 5376 5370 5366 5361 5356 5351 5347 5343 5339 5335 5331
5606 5602 5598 5593 5588 5583 5578 5572 5565 5559 5553 5546 5538 5530 5522 5513 5505 5496 5485 5474 5464 5451 5441 5432 5423 5414 5408 5399 5389 5381 5375 5369 5363 5358 5354 5349 5345 5340 5336 5332 5328 5324 5320
5593 5589 5585 5580 5575 5569 5564 5557 5550 5544 5537 5530 5522 5514 5505 5496 5486 5477 5469 5458 5446 5436 5424 5413 5404 5396 5389 5381 5374 5367 5361 5355 5350 5345 5341 5337 5333 5329 5325 5321 5317 5314 5310